Location: Gazon
(48.1318°N, 1.2708°W)
Time: 23:21:02
(UTC+00:00)

ARIANE 5 R/B - Pass Details

Date: 18 September 2020
Orbit: 620 x 657 km, 98.2° (Epoch: 09 October)

Event Time Altitude Azimuth Distance (km) Brightness Sun altitude
Exits shadow 21:15:16 45° 317° (NW) 853 3.6 -29.1°
Drops below altitude 10° 21:18:28 10° 340° (NNW) 2,003 5.9 -29.5°
Sets 21:20:41 0° 344° (NNW) 2,912 6.9 -29.7°
